Vorticity
nan nan nan nan nan nan nan nan nan nan nan nan nan nan nan nan nan nan nan nan nan nan nan nan nan nan nan nan nan nan nan nan nan nan nan nan nan nan nan nan nan nan nan nan nan nan nan nan nan
nan 10 8 8 5 0 9 13 11 11 8 1 2 -2 -2 7 17 12 10 8 6 5 5 5 5 5 6 6 5 5 5 4 5 5 5 6 6 6 6 6 6 6 6 5 4 4 4 3 nan
nan 8 6 11 2 1 -2 8 12 5 5 4 0 3 6 -1 0 13 17 7 3 4 6 7 5 5 6 6 6 5 5 5 6 5 5 6 6 6 5 6 6 6 5 4 4 4 4 3 nan
nan 5 7 8 4 6 2 5 6 4 4 12 7 2 7 6 11 14 11 6 6 5 5 6 6 6 6 5 5 5 5 5 6 6 5 5 5 5 5 6 6 6 5 4 4 4 4 4 nan
nan 10 9 5 5 4 14 10 3 3 7 7 7 5 5 10 14 7 6 4 4 6 6 6 7 7 6 5 5 5 5 5 5 5 5 5 5 5 5 6 5 6 5 5 4 4 4 3 nan
nan 8 6 7 5 5 15 13 6 4 6 1 6 7 8 11 3 5 6 7 4 5 6 6 4 5 6 6 5 5 5 6 5 5 5 5 5 5 5 5 6 5 5 5 4 4 5 5 nan
nan 7 5 5 4 7 15 9 7 6 -1 10 4 1 10 5 6 7 6 8 6 4 5 4 5 4 4 5 6 4 5 5 5 6 5 5 5 5 5 5 5 5 5 4 5 5 6 6 nan
nan 5 6 6 8 9 11 10 10 3 7 11 0 5 14 8 9 7 6 5 6 5 4 4 5 3 5 6 4 4 5 6 5 4 5 5 5 5 5 4 5 4 4 5 5 6 6 6 nan
nan 7 6 6 5 19 8 3 8 10 9 3 12 19 15 9 4 3 4 4 7 7 6 6 6 5 5 6 6 5 4 2 5 9 9 7 8 6 6 6 6 4 3 5 5 5 8 11 nan
nan 5 6 3 2 10 8 8 3 9 1 9 21 18 9 7 3 4 4 5 6 8 7 7 7 7 6 6 5 6 7 5 3 6 9 10 9 9 8 7 3 4 6 7 6 7 8 13 nan
nan 4 6 5 3 6 8 3 13 18 11 9 10 1 3 3 3 5 5 9 7 4 8 11 8 7 10 10 8 8 6 6 5 6 7 9 7 7 7 8 6 7 9 11 11 9 9 9 nan
nan 7 4 3 6 10 17 8 5 5 20 18 11 5 2 3 7 10 8 7 8 7 6 6 9 10 10 9 8 8 8 8 7 5 7 9 7 7 8 8 8 9 9 8 10 9 10 7 nan
nan 6 6 6 5 6 10 8 5 1 15 24 5 9 6 6 7 11 13 8 6 5 5 5 6 7 7 8 8 7 7 7 7 6 7 9 9 8 9 9 8 7 8 7 8 9 8 7 nan
nan 11 10 9 9 9 12 2 4 8 9 6 6 12 10 9 7 5 5 6 5 4 6 7 7 8 9 6 8 7 7 7 7 7 8 9 9 10 9 7 7 7 8 8 9 11 8 7 nan
nan 10 12 7 12 8 0 5 17 13 6 2 6 2 9 7 5 7 8 7 4 5 6 5 6 7 9 8 5 7 8 8 7 6 6 8 9 11 9 7 7 8 7 7 9 11 11 7 nan
nan 13 14 8 9 10 1 15 11 11 3 2 7 4 4 5 7 7 9 8 7 7 6 7 7 6 6 6 7 9 9 8 7 7 6 7 9 9 8 8 8 9 8 8 10 9 9 8 nan
nan 11 12 14 7 9 10 14 8 6 6 7 5 8 8 5 5 5 7 8 9 10 9 9 8 7 8 6 7 8 9 8 6 7 7 7 9 9 8 8 8 9 8 9 8 9 9 7 nan
nan 10 8 10 6 7 9 17 18 10 8 4 5 8 5 5 6 4 3 6 8 8 10 9 8 11 7 5 6 7 6 6 8 8 8 8 8 9 8 8 8 8 8 8 11 8 9 9 nan
nan 9 6 6 11 12 9 12 11 6 8 8 7 7 5 4 3 3 5 5 5 5 6 7 7 5 6 9 6 6 6 7 7 7 7 8 9 8 10 9 7 8 8 9 10 8 4 10 nan
nan 4 2 7 11 8 11 11 12 6 6 7 4 5 4 4 4 4 4 5 5 5 5 7 5 7 8 8 9 10 9 7 8 6 6 7 9 9 9 10 8 8 7 8 10 11 8 5 nan
nan 9 8 3 10 9 6 4 7 8 8 8 6 6 7 7 4 7 6 6 6 6 6 7 7 7 6 8 9 9 8 8 6 8 7 7 9 9 9 11 9 8 8 8 9 8 12 9 nan
nan 8 4 8 13 12 5 10 12 11 8 10 6 7 8 7 8 8 8 7 7 7 7 7 7 6 8 8 9 8 6 7 7 8 8 8 8 9 10 8 8 9 8 9 9 9 11 8 nan
nan 9 10 6 12 16 6 7 15 13 11 10 7 6 8 9 13 9 7 7 8 8 7 7 8 8 8 7 7 7 10 9 10 8 8 7 7 7 8 9 9 8 9 7 8 9 11 11 nan
nan 10 13 13 11 9 13 1 13 17 10 8 12 11 9 12 11 7 8 8 8 7 7 8 8 7 8 8 9 11 8 7 8 7 6 7 7 6 8 8 9 7 9 9 8 8 8 10 nan
nan 8 9 10 12 15 8 4 15 16 12 11 9 11 11 12 8 8 8 7 8 9 7 8 8 7 7 8 8 8 8 8 8 7 7 7 7 8 8 7 8 10 10 8 8 8 7 9 nan
nan 7 9 10 7 14 11 6 12 19 16 7 11 10 10 9 7 9 7 6 10 10 8 9 7 8 6 8 8 7 7 7 7 8 8 7 9 9 8 8 9 10 8 9 9 9 8 8 nan
nan 11 4 6 11 11 9 10 14 13 15 11 12 11 9 9 8 8 7 7 9 11 10 7 7 9 7 8 8 8 8 9 9 9 8 9 9 9 9 8 8 8 9 8 8 9 9 9 nan
nan 6 8 13 14 6 10 10 7 10 21 20 11 11 9 9 8 9 8 7 9 9 9 8 9 10 7 7 8 8 8 9 9 10 11 10 8 9 9 8 8 8 9 8 8 9 9 9 nan
nan 8 11 12 5 9 9 7 14 17 14 20 15 9 9 10 9 7 7 8 11 10 8 8 10 9 8 7 7 8 9 10 10 10 9 9 9 9 8 8 8 8 9 8 8 9 9 8 nan
nan nan nan nan nan nan nan nan nan nan nan nan nan nan nan nan nan nan nan nan nan nan nan nan nan nan nan nan nan nan nan nan nan nan nan nan nan nan nan nan nan nan nan nan nan nan nan nan nan
CAPE
0 0 0 0 0 0 0 0 0 0 736 930 1181 933 671 543 514 207 198 294 516 776 1012 1274 1357 1476 1520 1618 1659 1617 1557 1461 1343 1339 1296 1270 1215 1238 1362 1381 1302 1073 660 495 471 369 320 294 320
0 0 0 0 0 0 0 0 50 101 520 929 941 968 757 689 566 412 379 210 347 562 951 1179 1321 1356 1431 1464 1543 1487 1439 1356 1406 1326 1258 1190 1205 1193 1214 1229 1236 1056 699 407 281 263 196 134 133
0 0 0 0 0 0 0 280 264 211 759 1070 860 784 816 570 532 417 361 144 281 544 949 1217 1102 1131 1282 1385 1448 1415 1389 1340 1284 1256 1244 903 818 887 984 1045 1027 947 425 299 235 149 61 47 1
0 0 0 0 0 0 0 296 358 414 1107 815 638 748 676 815 731 622 463 447 361 568 810 843 963 1082 1209 1276 1280 1162 1027 934 960 1051 1127 866 728 585 621 712 777 724 260 164 74 23 19 0 0
0 0 0 0 0 0 0 216 314 393 702 870 730 717 826 775 652 774 809 458 299 432 711 902 974 1033 1184 1316 1139 927 772 693 684 652 662 768 596 550 596 438 401 366 168 66 46 30 0 0 0
0 0 0 0 0 0 0 219 367 565 863 807 845 847 611 801 793 764 913 557 358 370 552 815 1053 972 934 905 701 505 485 527 552 537 518 576 488 458 433 342 251 184 107 29 0 0 0 0 0
0 0 0 0 0 0 36 149 441 617 810 818 898 934 511 727 520 940 1023 633 407 400 379 405 573 666 353 192 14 17 111 138 125 160 250 291 250 259 382 407 401 345 254 189 144 112 80 51 0
0 0 0 0 0 0 98 185 807 642 628 886 760 584 727 861 855 1025 837 640 453 388 312 306 249 114 1 0 1 0 0 4 8 24 39 29 182 301 317 386 421 354 298 276 286 238 227 205 116
0 0 0 0 0 0 102 183 168 440 790 863 824 742 781 1011 1086 1039 705 580 600 547 473 318 356 195 16 0 7 17 13 1 1 4 20 188 139 331 136 167 113 30 0 5 66 122 168 151 181
0 0 0 0 0 0 286 176 706 608 476 751 744 721 880 942 964 945 697 622 582 562 632 422 460 186 89 144 0 0 1 12 2 0 1 208 178 63 259 9 0 0 0 72 99 159 124 33 97
0 0 0 0 0 0 69 150 308 596 450 728 633 526 628 684 712 771 848 712 595 518 280 205 171 180 196 50 88 49 0 0 0 0 0 0 1 0 0 30 23 0 0 61 57 23 0 22 0
0 0 0 0 0 0 116 160 70 83 398 229 558 568 431 304 291 522 715 521 347 184 9 0 9 9 2 2 0 0 0 0 0 0 0 0 0 0 0 0 0 0 0 0 0 32 20 0 0
0 0 0 0 0 0 58 49 55 0 120 216 366 504 253 299 253 341 320 169 82 40 0 0 0 0 0 0 0 0 0 0 0 0 0 0 0 0 0 0 0 0 0 0 0 0 10 0 0
0 0 0 0 0 0 166 227 135 12 0 17 217 217 171 171 175 228 153 62 24 0 0 0 0 0 0 0 0 0 0 0 0 0 0 0 0 0 0 0 0 0 0 0 0 0 0 1 0
0 0 0 0 0 0 27 205 89 41 48 34 418 198 51 33 57 42 55 21 0 0 0 0 0 0 0 0 0 0 0 0 0 0 0 0 0 0 0 0 0 0 0 0 0 0 0 0 0
0 0 0 0 0 0 0 19 10 101 267 368 227 90 69 57 74 38 13 0 0 0 0 0 0 0 0 0 0 0 0 0 0 0 0 0 0 0 0 0 0 0 0 0 0 0 0 0 0
0 0 0 0 0 0 0 20 21 244 360 241 221 103 48 70 65 14 0 0 0 0 0 0 0 0 0 0 0 0 0 0 0 0 0 0 0 0 0 0 0 0 0 0 0 0 0 0 0
0 0 0 0 0 0 3 319 57 362 138 176 78 42 34 35 46 40 1 0 0 0 0 0 0 0 0 0 0 0 0 0 0 0 0 0 0 0 0 0 0 0 0 0 0 0 0 0 0
0 0 0 0 0 0 101 181 411 360 161 53 57 42 40 18 0 0 0 0 0 0 0 0 0 0 0 0 0 0 0 0 0 0 0 0 0 0 0 0 0 0 0 0 0 0 0 0 0
0 0 0 0 0 2 21 468 443 290 164 96 67 58 29 4 0 0 0 0 0 0 0 0 0 0 0 0 0 0 0 0 0 0 0 0 0 0 0 0 0 0 0 0 0 0 0 0 0
0 0 0 0 0 14 22 293 289 306 181 49 35 39 3 0 0 0 0 0 0 0 0 0 0 0 0 0 0 0 0 0 0 0 0 0 0 0 0 0 0 0 0 0 0 0 0 0 0
0 0 0 0 0 0 26 3 148 40 9 59 40 40 0 0 0 0 0 0 0 0 0 0 0 0 0 0 0 0 0 0 0 0 0 0 0 0 0 0 0 0 0 0 0 0 0 0 0
0 0 0 0 0 56 40 18 13 105 101 145 91 37 29 13 17 0 0 0 0 0 0 0 0 0 0 0 0 0 0 0 0 0 0 0 0 0 0 0 0 0 0 0 0 0 0 0 0
0 0 0 0 0 39 15 0 0 170 281 300 222 102 32 12 0 0 0 0 0 0 0 0 0 0 0 0 0 0 0 0 0 0 0 0 0 0 0 0 0 0 0 0 0 0 0 0 0
0 0 0 0 0 0 1 2 0 50 123 200 119 117 75 0 0 0 0 0 0 0 0 0 0 0 0 0 0 0 0 0 0 0 0 0 0 0 0 0 0 0 0 0 0 0 0 0 0
0 0 0 0 0 0 0 0 0 6 162 137 94 139 33 0 0 0 0 0 0 0 0 0 0 0 0 0 0 0 0 0 0 0 0 0 0 0 0 0 0 0 0 0 0 0 0 0 0
0 0 0 0 0 0 0 0 0 0 0 38 13 118 64 0 0 0 0 0 0 0 0 0 0 0 0 0 0 0 0 0 0 0 0 0 0 0 0 0 0 0 0 0 0 0 0 0 0
0 0 0 0 0 0 0 0 0 0 0 2 16 136 146 9 0 0 0 0 0 0 0 0 0 0 0 0 0 0 0 0 0 0 0 0 0 0 0 0 0 0 0 0 0 0 0 0 0
0 0 0 0 0 0 0 0 0 0 0 0 13 66 156 1 0 0 0 0 0 0 0 0 0 0 0 0 0 0 0 0 0 0 0 0 0 0 0 0 0 0 0 0 0 0 0 0 0
0 0 0 0 0 0 0 0 0 0 0 2 1 13 104 61 0 0 0 0 0 0 0 0 0 0 0 0 0 0 0 0 0 0 0 0 0 0 0 0 0 0 0 0 0 0 0 0 0